Wetbulb
77.15 77.89 77.97 78.18 78.48 78.63 78.43 77.54 76.71 76.03 75.93 75.83 75.45 75.43 75.81 76.59 76.71 76.08 75.92 75.95 75.92 75.46 74.72 74.45 74.60 74.48 74.57 74.39 74.16 74.01 74.07 73.83 73.63 73.53 73.34 73.44 73.51 73.49 73.24 72.55 72.37 73.29 70.92
78.28 77.72 77.69 78.12 78.33 78.35 77.92 76.94 76.26 75.93 75.98 76.26 75.96 75.93 76.18 76.66 76.56 75.95 75.79 75.54 75.50 75.13 74.43 74.16 74.06 73.78 73.69 73.38 72.89 72.64 72.38 72.30 72.53 72.83 73.27 73.55 74.06 73.40 73.83 73.33 73.71 72.52 71.20
78.15 77.78 77.14 77.84 78.00 77.75 76.81 76.13 75.93 75.93 76.41 76.71 76.61 76.56 76.69 76.56 76.21 75.68 75.49 75.35 75.00 74.61 74.29 74.14 74.06 73.78 73.62 73.09 73.05 73.16 73.36 73.58 73.94 74.48 74.90 75.30 75.41 74.18 73.99 73.34 73.01 73.05 72.06
78.10 77.34 76.66 77.44 77.67 77.57 76.86 76.26 76.28 76.51 76.76 76.98 76.83 76.61 76.49 75.96 75.40 75.12 75.09 74.92 74.86 74.56 74.49 74.28 74.15 74.26 74.36 74.19 73.79 73.23 73.10 73.18 73.69 74.15 74.45 75.85 73.65 75.40 74.59 74.14 73.91 73.56 73.23
77.03 76.27 77.43 77.36 77.24 77.36 77.04 76.74 76.76 76.91 77.03 77.06 76.79 76.36 75.81 75.18 74.85 75.25 75.19 74.94 74.70 74.98 75.13 74.96 74.65 74.15 73.84 73.23 72.55 72.54 73.09 73.72 74.03 73.88 74.92 74.08 74.62 74.78 73.88 73.91 74.75 74.62 74.30
76.10 75.47 76.70 77.06 77.13 77.16 77.14 76.88 76.78 76.83 76.81 76.73 76.39 75.81 75.23 74.85 75.03 75.50 75.32 75.12 75.07 75.61 75.30 74.87 74.11 73.47 73.33 73.36 73.46 73.59 73.60 73.60 73.50 72.34 72.61 73.95 73.11 73.19 71.26 71.03 73.13 75.17 76.13
75.07 75.75 76.34 76.77 76.85 77.08 77.09 76.96 76.65 76.65 76.30 76.16 75.68 75.05 74.72 74.88 75.41 75.53 75.40 75.46 75.60 75.46 75.21 74.76 74.03 73.72 73.46 73.50 73.59 73.72 73.53 73.15 71.73 70.66 70.40 72.12 71.71 72.84 72.73 72.87 73.56 74.33 75.25
74.91 75.73 75.48 76.31 76.55 76.45 76.60 76.48 76.40 76.15 76.23 76.20 75.88 75.33 74.83 74.66 74.93 75.15 75.15 75.31 74.97 74.49 73.97 73.84 73.67 73.63 73.31 73.20 73.21 73.83 73.70 72.61 70.81 69.03 69.47 70.74 73.65 72.06 72.92 73.68 74.17 74.75 74.80
75.23 74.07 73.94 74.52 75.77 76.15 76.18 75.97 76.07 75.99 75.92 75.72 75.52 75.20 74.91 74.30 74.33 74.27 74.31 74.28 73.95 73.36 73.08 73.15 73.39 73.61 73.65 73.86 73.93 73.86 73.51 72.43 71.26 68.91 69.42 69.84 73.00 72.61 72.63 74.36 75.10 75.48 75.48
74.90 73.42 72.77 72.89 72.86 73.70 75.00 75.80 75.85 75.67 75.52 75.39 75.02 74.98 74.86 74.28 73.88 73.74 74.03 74.06 73.29 72.96 72.73 72.81 72.77 72.97 73.91 73.79 73.54 73.41 73.48 73.13 70.29 70.71 70.03 71.84 73.74 73.07 72.95 74.76 75.53 75.76 75.86
73.76 73.36 72.85 72.16 72.04 71.62 72.26 74.97 75.38 75.08 74.95 74.98 74.52 74.56 73.68 72.85 72.66 72.24 72.80 72.99 72.06 72.25 72.55 72.84 73.09 73.93 73.71 73.61 73.21 73.38 73.80 72.11 71.41 71.17 71.18 73.08 72.74 72.42 73.53 75.07 75.63 75.63 75.53
73.19 72.67 72.80 72.71 72.37 71.42 70.80 72.40 72.39 73.10 72.95 73.27 73.74 73.15 72.98 73.42 73.66 73.49 73.48 71.88 72.27 72.86 73.54 73.85 73.88 73.83 73.77 74.52 73.24 73.63 73.34 72.86 72.22 71.95 72.25 74.01 73.08 73.11 73.62 74.84 75.56 75.93 75.68
74.12 72.91 72.57 73.93 74.52 72.34 71.97 71.24 72.14 72.62 73.23 74.26 75.02 74.32 74.61 72.79 72.56 70.98 73.13 73.10 73.82 73.45 73.73 73.56 74.41 74.51 74.54 74.07 73.53 73.17 72.96 72.87 72.49 72.47 74.99 73.90 73.67 73.20 73.63 74.37 75.57 74.82 73.93
74.13 73.26 73.67 74.38 75.67 75.37 73.62 71.98 72.42 71.47 72.69 73.09 73.70 74.75 74.66 72.58 73.15 72.86 71.71 71.92 73.05 74.04 73.92 74.45 73.29 74.64 75.03 74.50 74.08 73.82 74.24 74.36 73.89 73.48 74.87 74.13 73.28 73.67 72.78 72.42 72.37 72.88 72.56
73.64 73.79 73.70 75.30 75.76 77.43 76.09 73.97 73.56 73.49 73.24 74.00 74.14 74.37 73.50 71.78 72.82 72.20 72.67 71.20 70.92 72.98 73.97 73.81 74.08 74.61 74.28 74.50 74.35 74.38 73.96 74.54 74.36 73.73 73.77 76.07 74.39 72.74 71.56 71.17 71.55 71.67 71.57
75.10 74.59 74.63 74.80 77.13 75.74 76.80 77.57 75.04 74.88 75.06 74.40 74.46 74.59 74.34 72.62 73.74 72.01 71.71 70.56 71.15 73.01 74.00 74.33 76.07 75.51 75.20 74.88 74.60 75.07 74.39 73.96 74.26 74.22 73.76 74.36 73.39 71.23 71.01 71.36 71.13 71.08 69.35
74.32 74.96 76.26 76.02 75.95 76.77 75.98 75.85 75.88 75.33 75.16 74.75 74.91 75.73 74.30 74.25 73.98 73.65 72.39 71.68 73.67 75.71 75.51 76.17 75.69 75.44 74.58 73.62 73.86 73.78 73.71 73.20 73.89 72.96 73.53 72.48 72.65 71.92 71.21 69.51 67.69 65.86 66.84
74.46 75.51 75.85 74.81 74.79 75.68 76.52 76.11 75.42 75.17 75.02 74.79 74.36 74.41 73.80 73.70 74.97 75.29 74.92 74.88 75.73 75.85 75.58 75.01 74.37 73.19 72.77 72.65 71.78 72.11 72.40 73.54 73.28 73.56 74.28 72.82 71.16 70.55 70.12 67.49 66.51 66.31 65.65
74.34 75.27 75.74 75.85 74.82 75.67 77.40 76.22 76.48 76.97 74.90 73.60 72.94 73.28 74.22 74.52 74.74 75.57 74.89 75.26 75.78 75.16 74.03 72.64 71.11 71.17 70.77 71.11 70.43 71.96 72.25 71.78 72.87 70.87 71.80 71.68 67.92 65.78 63.40 64.72 65.16 66.40 65.35
74.70 75.65 75.85 75.07 75.00 76.35 75.80 77.08 74.70 74.76 72.69 72.58 74.07 75.15 75.98 75.64 75.51 76.03 76.16 76.24 74.82 72.93 71.37 71.25 71.44 72.03 71.63 71.32 69.71 69.57 71.98 71.58 72.09 69.77 70.45 69.51 65.81 62.92 62.78 63.98 63.72 62.90 65.40
73.64 74.72 74.57 73.97 74.76 75.68 74.10 72.92 72.17 69.93 71.49 74.10 75.91 76.70 76.43 76.09 75.84 76.42 74.30 73.45 71.88 71.23 71.50 71.78 71.06 70.85 70.09 70.41 68.63 67.34 68.28 71.68 70.68 64.31 68.09 65.74 63.14 62.19 62.57 62.43 62.44 62.49 61.93
72.67 73.97 73.39 73.83 75.77 75.91 74.44 73.18 71.66 71.92 73.85 74.56 75.19 75.16 74.15 73.03 73.13 73.24 73.34 72.29 72.03 71.42 70.64 69.86 69.78 68.33 68.63 68.58 63.71 62.81 60.19 63.26 64.24 63.59 62.58 62.46 62.54 62.19 61.83 62.50 62.10 62.99 62.11
72.50 72.80 73.14 74.83 75.40 75.64 74.89 76.87 76.79 75.77 74.38 73.19 73.20 72.53 71.49 71.83 72.21 72.08 71.26 70.08 70.57 70.78 68.23 66.99 65.97 64.97 61.92 63.85 65.70 59.27 55.82 54.71 57.68 61.14 63.03 61.40 64.10 61.44 61.86 62.21 62.02 61.36 61.70
72.27 73.05 73.17 73.94 75.05 75.08 77.60 76.45 75.40 72.84 71.67 76.11 70.93 69.26 68.54 69.84 69.25 69.41 68.88 68.03 67.05 65.81 65.12 63.60 63.21 63.80 63.35 59.75 60.11 60.46 61.75 60.43 55.59 54.12 59.55 61.14 61.62 62.60 63.35 61.07 61.36 61.09 60.45
72.02 72.22 72.87 73.31 74.25 75.76 76.75 77.07 74.44 75.32 74.21 72.43 69.49 68.91 67.46 66.77 66.25 65.41 65.18 64.86 64.46 63.57 63.10 63.15 62.73 62.62 61.37 59.84 58.72 58.39 60.93 59.01 60.21 56.40 54.06 56.30 58.33 59.77 60.72 60.56 60.51 59.42 60.71
71.81 72.21 72.42 72.92 73.98 74.32 74.54 75.26 75.35 74.63 70.50 69.60 68.79 67.03 65.93 64.71 63.75 63.86 63.35 63.09 62.84 62.69 62.60 61.83 62.60 61.91 61.47 60.33 59.95 59.94 57.84 56.76 56.49 56.36 54.94 56.47 55.32 58.23 59.24 60.52 59.66 59.27 59.51
MSLP
1003.15 1005.45 1006.85 1007.28 1007.77 1008.32 1008.67 1009.26 1009.77 1010.37 1010.73 1011.09 1011.47 1011.92 1012.05 1012.28 1012.59 1012.77 1013.06 1013.27 1013.42 1013.56 1013.66 1013.72 1013.84 1014.03 1014.08 1014.10 1014.10 1014.09 1014.05 1014.05 1014.04 1013.95 1013.82 1013.60 1013.44 1013.45 1013.48 1013.52 1013.41 1012.50 1013.18
1003.29 1005.71 1007.10 1007.49 1007.81 1008.55 1008.92 1009.45 1010.02 1010.61 1011.09 1011.36 1011.80 1012.09 1012.43 1012.68 1012.94 1013.10 1013.34 1013.60 1013.76 1013.85 1013.92 1013.98 1014.06 1014.15 1014.19 1014.21 1014.25 1014.27 1014.24 1014.16 1014.03 1013.86 1013.56 1013.25 1013.06 1013.01 1013.22 1013.28 1013.25 1012.85 1013.29
1003.78 1005.82 1007.08 1007.89 1008.07 1008.68 1009.23 1009.67 1010.26 1010.76 1011.11 1011.69 1012.18 1012.40 1012.70 1012.95 1013.26 1013.44 1013.67 1013.86 1013.94 1013.97 1014.05 1014.19 1014.32 1014.41 1014.41 1014.37 1014.39 1014.39 1014.36 1014.17 1013.95 1013.71 1013.32 1012.67 1011.41 1012.50 1012.66 1013.05 1013.11 1013.13 1013.19
1004.34 1005.96 1006.94 1008.24 1008.46 1008.93 1009.43 1009.83 1010.43 1010.91 1011.24 1011.77 1012.28 1012.62 1013.03 1013.27 1013.51 1013.66 1013.91 1014.08 1014.18 1014.25 1014.39 1014.46 1014.54 1014.57 1014.60 1014.59 1014.48 1014.40 1014.31 1014.18 1013.95 1013.60 1012.72 1011.13 1010.84 1012.28 1012.52 1012.78 1012.94 1013.01 1013.06
1004.74 1005.93 1007.30 1008.34 1008.88 1009.26 1009.64 1010.12 1010.66 1011.15 1011.67 1012.05 1012.43 1012.75 1013.22 1013.47 1013.68 1013.83 1014.11 1014.34 1014.43 1014.47 1014.50 1014.56 1014.54 1014.52 1014.45 1014.37 1014.37 1014.31 1014.15 1013.99 1013.80 1013.42 1011.98 1010.95 1011.41 1012.06 1012.49 1012.60 1012.53 1012.56 1012.62
1004.90 1005.73 1008.03 1008.54 1009.11 1009.55 1009.87 1010.40 1010.95 1011.46 1011.97 1012.27 1012.64 1012.99 1013.34 1013.61 1013.83 1014.03 1014.24 1014.44 1014.46 1014.53 1014.55 1014.57 1014.55 1014.56 1014.56 1014.50 1014.48 1014.38 1014.28 1014.06 1013.82 1012.38 1010.89 1010.81 1011.36 1012.15 1012.11 1012.13 1012.32 1012.47 1012.47
1004.96 1005.78 1007.88 1008.87 1009.41 1009.83 1010.22 1010.77 1011.37 1011.78 1012.17 1012.49 1012.87 1013.20 1013.48 1013.71 1013.89 1014.07 1014.23 1014.38 1014.49 1014.59 1014.65 1014.74 1014.75 1014.66 1014.58 1014.50 1014.28 1014.14 1014.03 1013.93 1013.47 1012.24 1011.31 1010.77 1010.83 1011.58 1011.79 1012.00 1012.20 1012.17 1011.99
1004.84 1006.25 1007.87 1009.24 1009.69 1010.19 1010.65 1011.09 1011.69 1012.04 1012.36 1012.67 1013.09 1013.40 1013.67 1013.91 1014.04 1014.14 1014.29 1014.49 1014.62 1014.69 1014.68 1014.80 1014.86 1014.81 1014.78 1014.62 1014.34 1014.15 1014.02 1013.79 1013.13 1012.03 1011.14 1010.48 1010.83 1011.27 1011.78 1012.00 1011.94 1011.87 1011.76
1005.24 1006.43 1007.83 1008.82 1009.88 1010.56 1011.04 1011.50 1011.94 1012.32 1012.60 1012.89 1013.22 1013.42 1013.72 1013.98 1014.14 1014.23 1014.39 1014.50 1014.63 1014.76 1014.77 1014.78 1014.81 1014.72 1014.60 1014.33 1014.06 1013.77 1013.63 1013.55 1013.08 1011.88 1010.95 1010.09 1011.04 1011.38 1011.64 1011.84 1011.76 1011.71 1011.60
1005.62 1006.67 1007.71 1008.71 1009.44 1010.21 1011.13 1011.89 1012.25 1012.54 1012.77 1013.00 1013.32 1013.50 1013.70 1014.01 1014.20 1014.31 1014.39 1014.42 1014.57 1014.58 1014.62 1014.50 1014.42 1014.35 1014.15 1013.90 1013.60 1013.37 1013.31 1013.08 1012.28 1011.23 1009.83 1009.72 1010.80 1010.94 1011.28 1011.61 1011.68 1011.48 1011.13
1005.78 1006.76 1007.33 1008.03 1008.87 1009.28 1010.34 1011.87 1012.41 1012.77 1012.99 1013.12 1013.37 1013.62 1013.72 1013.03 1013.68 1013.85 1013.98 1014.09 1014.37 1014.43 1014.41 1014.24 1014.16 1013.97 1013.64 1013.35 1012.62 1012.73 1012.64 1011.64 1010.46 1009.94 1009.76 1010.54 1010.87 1011.07 1011.26 1011.46 1011.44 1011.30 1011.18
1005.30 1006.26 1006.89 1007.59 1008.38 1008.87 1009.98 1011.40 1011.69 1012.29 1012.49 1012.45 1012.65 1013.15 1012.52 1012.35 1012.62 1012.82 1013.38 1013.77 1013.89 1013.91 1013.79 1013.57 1013.46 1013.17 1013.12 1012.12 1011.07 1012.01 1011.87 1010.42 1010.13 1009.70 1009.24 1010.51 1010.79 1010.92 1011.32 1011.49 1011.29 1011.06 1010.88
1004.87 1006.02 1006.67 1007.51 1008.19 1008.57 1009.47 1010.44 1010.94 1011.58 1011.75 1011.85 1012.08 1012.45 1011.97 1012.34 1012.65 1012.67 1012.29 1012.61 1012.66 1013.39 1012.26 1013.10 1012.30 1012.20 1011.96 1012.01 1011.48 1011.21 1010.89 1010.61 1010.19 1009.71 1009.77 1010.34 1010.46 1010.69 1010.94 1011.29 1011.31 1011.00 1010.86
1004.17 1005.34 1006.29 1007.56 1008.12 1008.42 1009.16 1009.60 1010.15 1010.53 1010.94 1011.36 1011.78 1012.28 1012.41 1012.35 1012.37 1012.40 1011.68 1011.87 1012.13 1011.72 1012.30 1012.01 1011.64 1011.64 1011.63 1011.62 1011.28 1010.91 1010.57 1010.43 1010.29 1010.25 1009.69 1010.24 1010.18 1010.46 1010.80 1010.93 1011.04 1011.07 1010.86
1004.20 1005.37 1006.39 1007.61 1008.28 1008.47 1008.98 1009.01 1009.51 1009.98 1010.59 1010.80 1011.67 1012.04 1011.91 1011.71 1012.06 1012.17 1012.11 1012.23 1012.25 1012.03 1011.95 1012.01 1011.56 1011.48 1011.47 1011.16 1010.91 1011.12 1010.96 1010.65 1010.42 1010.36 1009.81 1009.81 1010.44 1010.74 1011.13 1011.21 1011.26 1011.24 1011.03
1004.39 1005.61 1006.45 1007.50 1008.42 1008.81 1008.89 1009.23 1009.71 1010.10 1010.40 1010.87 1011.05 1011.63 1011.95 1011.91 1012.22 1011.98 1012.35 1012.08 1012.08 1012.21 1012.20 1011.93 1011.61 1011.68 1011.70 1011.51 1011.45 1011.26 1011.41 1010.80 1009.99 1009.93 1009.70 1009.77 1010.67 1011.18 1011.74 1011.26 1011.37 1011.35 1011.35
1004.90 1005.99 1006.67 1007.51 1008.61 1009.12 1009.29 1009.81 1010.10 1010.09 1010.23 1010.46 1010.61 1011.61 1011.77 1012.18 1012.36 1012.29 1012.02 1012.15 1012.04 1012.42 1012.36 1012.38 1012.26 1012.07 1011.45 1011.25 1012.00 1011.97 1011.30 1010.83 1009.98 1010.23 1010.16 1010.78 1011.27 1011.24 1011.54 1011.70 1011.58 1011.45 1011.32
1005.17 1006.24 1007.07 1007.76 1009.02 1009.48 1009.65 1009.81 1009.81 1009.79 1009.87 1010.12 1010.63 1011.45 1011.78 1012.04 1012.13 1012.30 1012.14 1012.18 1012.53 1012.52 1012.38 1012.40 1012.46 1012.72 1012.79 1012.04 1010.57 1011.50 1011.34 1010.78 1010.27 1009.97 1010.47 1010.56 1011.31 1011.28 1011.75 1011.66 1011.58 1011.49 1011.46
1005.70 1006.68 1007.36 1007.92 1008.86 1009.20 1009.43 1009.58 1009.63 1010.10 1010.07 1010.35 1010.80 1011.12 1011.66 1011.79 1012.01 1011.87 1012.12 1012.34 1012.77 1012.50 1012.67 1012.96 1013.09 1013.36 1012.93 1012.24 1011.73 1011.01 1011.13 1010.57 1010.60 1010.83 1010.87 1011.08 1011.83 1011.92 1011.95 1011.83 1011.86 1011.47 1011.63
1005.85 1006.67 1007.04 1008.07 1009.04 1009.33 1009.23 1009.66 1009.62 1010.36 1010.31 1010.60 1010.92 1011.12 1011.92 1011.80 1012.05 1012.25 1012.09 1012.64 1012.74 1012.73 1012.92 1013.43 1013.73 1013.22 1012.68 1012.11 1011.53 1011.51 1011.13 1010.77 1010.67 1011.18 1011.10 1010.92 1011.85 1012.32 1012.06 1012.21 1011.83 1011.76 1011.59
1005.81 1006.55 1007.08 1008.03 1008.90 1009.12 1008.94 1009.63 1009.57 1009.90 1010.20 1010.70 1011.50 1011.74 1012.04 1012.17 1012.32 1012.41 1012.54 1013.15 1013.59 1013.39 1013.82 1013.82 1013.83 1013.18 1012.38 1012.25 1011.67 1011.43 1010.85 1010.63 1011.15 1011.57 1011.36 1011.53 1012.45 1012.36 1012.07 1012.09 1012.06 1012.12 1011.78
1005.63 1006.30 1007.01 1007.77 1008.41 1008.53 1009.12 1009.26 1009.43 1009.52 1010.55 1011.35 1011.79 1012.15 1012.54 1013.10 1013.28 1013.06 1013.53 1013.69 1014.08 1013.79 1014.27 1014.32 1014.13 1013.15 1012.31 1012.37 1012.60 1012.60 1011.47 1011.07 1011.44 1011.73 1011.75 1011.86 1012.44 1012.10 1012.09 1011.99 1012.33 1012.08 1011.83
1005.31 1005.85 1006.64 1007.42 1008.12 1008.47 1008.78 1009.20 1009.60 1010.24 1011.36 1011.67 1012.27 1012.74 1013.46 1013.36 1013.55 1013.75 1014.05 1014.35 1014.38 1014.23 1014.26 1014.55 1014.50 1014.27 1013.46 1012.90 1013.59 1014.08 1013.11 1012.58 1012.74 1011.92 1011.89 1011.96 1012.32 1012.12 1012.25 1012.25 1012.04 1011.96 1011.78
1004.79 1005.65 1006.33 1007.07 1007.75 1008.33 1008.72 1009.35 1010.07 1010.49 1010.91 1011.42 1012.18 1013.47 1014.19 1014.11 1014.35 1014.51 1014.57 1014.72 1014.80 1014.98 1015.10 1015.09 1015.23 1014.78 1014.22 1013.58 1014.04 1014.55 1014.63 1014.61 1014.14 1013.00 1012.53 1012.23 1012.26 1011.91 1012.11 1012.17 1012.09 1012.06 1012.08
1005.05 1005.17 1006.17 1006.81 1007.55 1008.31 1008.67 1009.11 1010.02 1010.47 1011.00 1011.32 1013.02 1013.72 1014.48 1014.89 1014.88 1015.07 1015.13 1015.34 1015.44 1015.28 1015.51 1015.78 1015.78 1015.41 1014.48 1014.89 1014.99 1014.88 1014.75 1014.28 1014.69 1014.34 1013.34 1012.67 1012.60 1012.10 1012.01 1012.16 1012.43 1012.16 1012.00
1004.34 1004.43 1006.52 1006.62 1007.24 1008.04 1008.62 1009.16 1009.88 1010.35 1011.24 1012.13 1013.03 1013.61 1014.09 1014.87 1015.29 1015.53 1015.68 1015.93 1016.00 1015.85 1015.86 1016.07 1015.86 1015.88 1015.85 1016.16 1015.76 1015.53 1015.47 1015.35 1015.24 1014.90 1014.36 1013.66 1013.56 1012.54 1012.34 1012.41 1012.24 1012.00 1012.03
Wind_Speed
19 20 14 15 15 16 17 18 16 15 15 15 15 13 13 12 11 12 11 10 10 10 9 9 9 8 7 7 6 5 4 4 3 3 3 5 5 4 4 4 7 7 4
22 20 15 16 17 16 17 18 17 15 15 15 13 13 12 12 11 11 10 9 9 9 8 8 8 7 6 6 5 3 3 2 3 5 9 12 12 9 7 6 8 7 4
21 19 17 15 18 18 17 18 17 16 17 14 12 12 12 11 10 10 10 9 8 8 8 7 7 6 5 5 4 2 2 3 6 9 14 13 12 15 11 8 8 9 7
20 18 17 15 17 18 18 19 17 17 17 15 14 13 12 11 10 10 9 8 8 8 7 6 6 4 4 3 1 2 4 6 9 13 13 12 6 14 9 8 9 10 11
19 18 18 16 16 18 18 18 17 17 16 15 14 14 12 11 11 10 9 8 7 7 6 5 4 3 2 1 2 4 6 8 11 14 16 7 8 7 5 6 11 13 13
19 19 19 17 17 17 18 18 17 17 16 15 14 14 13 12 11 10 9 8 7 6 5 4 2 1 2 4 5 7 9 10 13 15 13 4 6 10 3 3 8 12 12
19 19 18 16 16 17 18 18 16 17 16 15 14 14 13 12 12 11 9 8 7 5 3 2 2 4 5 6 8 9 10 12 13 14 14 8 9 5 3 6 9 10 12
18 19 19 16 16 16 16 16 16 16 16 15 14 12 12 11 11 10 8 7 5 3 2 2 4 7 8 9 11 11 11 13 13 14 14 10 5 7 4 8 10 11 12
17 18 17 16 15 14 15 15 16 15 15 14 13 13 11 11 10 8 7 6 4 2 2 4 6 8 9 11 12 12 12 14 13 11 14 7 12 6 5 9 12 12 13
17 17 17 15 15 15 14 14 15 15 14 14 13 12 12 10 9 8 7 7 4 3 4 6 7 9 10 13 14 14 13 15 15 15 10 3 9 7 5 10 13 14 14
15 17 17 19 17 16 17 13 14 15 14 13 12 10 11 10 9 11 9 9 5 5 6 8 9 11 14 16 21 16 14 9 13 8 8 12 7 5 8 10 13 14 16
19 19 18 17 17 16 13 15 13 12 11 10 10 10 10 5 3 5 7 9 10 10 13 13 13 15 14 10 8 15 9 10 10 10 6 10 7 7 9 12 13 13 13
21 16 17 14 15 17 15 11 8 8 7 7 9 8 2 5 6 7 6 8 8 12 7 9 8 9 12 9 9 9 11 11 9 8 5 9 8 6 6 9 12 11 15
21 20 19 17 11 13 12 11 11 9 8 7 8 7 5 5 4 3 3 3 6 2 3 4 5 5 7 10 10 10 12 11 10 8 9 7 8 7 4 6 10 13 14
19 18 18 17 14 9 10 9 9 8 7 8 8 8 7 5 3 3 1 4 3 2 2 4 6 6 7 9 9 12 12 11 12 9 8 3 8 6 5 7 10 14 15
16 15 17 18 11 13 9 9 7 6 7 7 7 8 5 5 4 3 5 4 1 2 2 5 6 6 8 10 10 12 13 12 10 12 10 7 8 6 5 13 13 14 16
13 15 15 17 15 12 11 10 7 8 9 7 6 6 5 5 4 4 3 3 2 1 5 4 6 4 4 3 8 11 10 15 14 8 6 6 4 11 11 12 13 15 14
12 12 14 13 12 13 11 8 8 8 6 5 5 7 7 6 5 5 5 2 1 2 3 4 4 5 6 7 4 7 9 11 9 10 1 8 6 5 6 12 16 16 12
14 15 15 16 16 13 13 10 8 9 5 5 5 5 6 7 7 5 3 3 4 2 3 3 3 5 6 7 7 8 9 9 4 9 7 6 8 10 9 15 16 14 10
16 16 16 12 12 10 9 6 7 8 6 6 4 4 7 6 7 6 3 2 3 2 5 5 6 5 6 8 8 8 9 8 6 6 7 8 11 11 9 10 9 10 14
15 17 17 16 16 11 10 8 8 9 8 6 3 5 4 2 2 1 2 1 5 5 6 6 7 5 5 7 8 10 10 6 7 7 8 7 10 10 9 8 7 7 8
15 18 17 16 15 11 9 7 8 8 8 7 6 6 7 9 7 5 6 3 5 5 7 6 7 6 6 8 7 8 6 6 8 8 7 7 11 8 9 9 9 10 9
21 21 18 16 14 12 12 7 6 9 6 7 7 7 5 4 6 5 7 7 4 3 6 7 8 10 6 7 9 6 6 6 10 7 9 7 8 8 7 8 9 11 11
21 19 20 17 15 12 11 11 11 9 9 3 7 8 7 8 8 8 8 8 7 6 7 7 7 5 7 8 5 5 3 4 5 7 9 9 9 7 7 8 9 11 11
21 20 17 19 16 15 12 12 11 8 7 8 9 10 10 8 9 9 10 9 8 6 8 8 8 9 9 6 6 5 5 3 5 7 9 10 10 9 8 8 9 9 12
20 21 17 19 16 16 11 10 7 7 10 9 9 8 7 7 7 8 8 7 6 6 7 7 8 11 8 8 6 6 6 6 6 8 9 10 11 10 10 8 11 9 11
Wind_Direction
138 139 140 139 132 139 139 137 136 139 136 128 131 135 127 127 130 125 116 111 108 104 102 103 101 96 93 88 82 76 67 43 13 346 305 266 236 234 247 270 284 297 101
131 144 139 140 135 139 138 137 135 137 129 124 135 134 129 127 128 124 117 110 106 104 105 104 104 103 102 100 97 85 61 12 318 296 274 255 236 210 209 244 261 301 332
132 144 148 139 135 137 138 134 135 133 124 126 131 131 129 127 126 121 114 112 114 114 113 107 102 100 100 103 88 56 355 311 296 288 281 270 206 196 178 215 247 266 274
135 145 143 137 134 136 138 133 133 129 127 129 130 128 126 125 127 118 115 120 119 113 103 101 99 100 83 67 39 330 309 307 296 289 278 251 338 160 172 214 244 256 258
142 153 128 135 134 135 134 128 128 124 125 129 130 129 129 128 125 120 124 124 118 110 108 104 112 121 137 214 280 293 291 293 293 288 276 322 3 110 164 239 251 239 240
148 148 131 133 135 135 131 129 126 126 130 128 129 128 132 130 125 125 127 129 124 120 120 131 148 191 257 282 300 294 295 296 300 281 296 348 293 113 141 265 268 278 279
154 134 140 134 136 135 133 130 130 130 128 126 127 132 132 133 132 133 135 136 132 131 139 172 238 268 282 289 286 284 287 292 289 296 294 288 290 106 358 297 285 274 267
147 133 137 134 133 133 132 130 132 130 129 128 129 131 133 136 136 137 137 136 138 146 195 286 302 299 301 296 289 289 289 290 294 292 294 286 101 80 348 306 290 284 277
142 142 148 148 134 127 131 132 132 130 128 127 132 134 136 138 141 143 146 154 167 203 287 304 301 297 293 286 282 278 279 285 285 282 279 281 99 89 354 308 297 293 288
147 141 150 147 153 157 146 130 129 129 132 133 136 139 143 143 147 158 172 172 181 222 262 272 279 283 279 274 268 263 263 269 263 261 273 30 109 62 343 305 300 296 289
161 151 160 156 157 156 141 135 130 135 136 135 143 152 164 169 175 166 119 144 181 225 248 252 257 260 261 264 254 246 248 262 267 310 299 93 81 34 347 314 303 302 303
169 166 159 158 158 146 148 153 156 153 166 174 173 174 217 128 113 37 133 172 200 215 231 230 235 242 251 265 331 218 239 309 311 302 311 119 99 46 0 323 315 314 330
169 170 158 151 173 155 137 169 156 168 168 165 154 190 117 174 167 210 171 191 207 200 253 201 221 228 3 313 320 318 320 312 312 315 13 127 99 67 25 335 326 332 335
162 170 159 145 168 168 142 178 165 178 165 165 167 182 139 219 164 281 278 19 201 123 5 280 306 343 291 330 302 307 322 328 332 317 312 135 124 96 65 355 335 334 336
161 164 166 155 172 154 157 163 170 152 175 153 154 184 181 220 190 220 89 280 352 328 320 334 295 352 310 294 334 342 322 319 320 306 312 138 109 96 47 27 6 346 340
158 156 155 160 167 158 173 136 145 158 138 172 172 165 193 216 153 205 201 224 221 277 323 270 8 346 347 350 338 342 326 307 307 315 318 340 103 64 31 41 24 9 1
150 166 157 161 163 157 151 152 167 168 165 184 159 145 192 217 163 281 210 218 141 272 267 325 315 309 263 46 347 318 327 325 327 329 6 343 147 103 68 45 24 2 350
135 146 154 148 162 174 145 169 187 149 190 171 154 157 183 184 179 209 197 105 69 275 278 288 303 344 332 352 33 322 315 301 326 319 71 30 20 38 105 47 23 341 349
139 159 171 159 167 174 157 170 180 130 186 167 169 170 181 180 170 219 192 171 224 260 330 340 354 329 325 347 327 339 326 320 358 31 359 79 45 11 350 2 4 322 29
151 158 165 148 160 191 152 170 156 176 163 161 158 152 183 175 183 212 186 218 262 281 335 349 309 325 327 356 360 332 301 284 52 24 342 21 37 357 1 359 337 348 6
161 160 158 163 168 182 159 185 157 169 165 144 133 171 154 138 127 110 98 29 352 330 352 327 315 347 16 13 355 350 310 110 106 354 27 19 29 350 1 354 352 343 347
162 159 165 162 168 161 175 178 177 171 125 171 143 99 56 53 38 56 4 5 359 342 37 11 358 354 31 49 13 323 343 326 22 347 14 10 16 343 7 354 2 340 358
167 164 160 156 161 174 173 134 98 104 125 168 145 112 77 78 61 50 46 36 32 337 59 34 16 27 22 45 29 6 337 3 323 11 15 15 343 349 3 336 10 348 4
165 161 157 152 161 168 165 151 156 169 176 163 88 89 82 76 77 77 75 70 54 54 41 45 34 17 18 36 8 17 18 13 354 330 339 357 2 332 24 334 7 347 360
167 156 150 154 165 155 175 162 173 181 142 105 102 101 92 80 74 66 65 61 50 50 63 46 41 31 53 19 35 13 19 6 32 335 324 342 357 347 4 357 3 353 356
155 144 156 159 161 162 169 160 191 127 105 119 136 139 122 110 93 71 74 73 58 66 55 57 50 52 46 41 12 26 25 17 358 344 333 343 341 333 7 17 353 354 356